#timestamp,LO_Frequency,Hit,StdDev 
1658818815.3,286046998.1,N
1658818835.2,286046999.5,N
1658818855.0,286046999.1,N
1658818855.9,286046999.1,N
1658818875.8,286046995.1,Y
1658818895.6,286047001.0,P
1658818915.4,286047001.0,N
1658818935.3,286046999.4,N
1658818955.1,286046996.7,Y
1658818975.8,286046997.1,P
1658818995.7,286046997.4,N
1658819015.5,286046994.9,P
1658819035.4,286046995.7,N
1658819055.2,286046996.2,N
1658819075.0,286046995.2,N
1658819075.9,286046995.2,N
1658819095.8,286046997.7,N
1658819115.6,286046997.4,N
1658819135.4,286046997.3,N
1658819155.3,286046996.9,N
1658819175.1,286046996.5,N
1658819195.9,286046996.6,N
1658819215.7,286046996.5,N
1658819235.5,286046996.6,N
1658819255.4,286046996.6,N
1658819275.2,286046999.5,N
1658819295.0,286046999.4,N
1658819295.9,286046999.4,N
1658819315.8,286046998.8,N
1658819335.6,286046997.8,N
1658819355.5,286046997.5,N
1658819375.3,286046997.6,N
1658819395.1,286046997.8,N
1658819415.9,286046997.7,N
1658819435.7,286046997.9,N
1658819455.5,286046997.5,N
1658819475.4,286046997.4,N
1658819495.2,286046997.2,N
1658819515.1,286046996.8,N
1658819516.0,286046996.8,N
1658819535.8,286046996.5,Y
1658819555.6,286046999.9,P
1658819575.5,286047002.8,N
1658819595.3,286047002.4,N
1658819615.1,286047002.5,N
1658819635.9,286047000.2,N
1658819655.7,286046999.8,N
1658819675.6,286047002.4,N
1658819695.4,286047002.2,N
1658819715.2,286047002.4,N
1658819735.1,286047002.4,N
1658819736.0,286047002.4,N
1658819755.8,286047002.4,N
1658819775.7,286047002.2,N
1658819795.5,286046999.7,N
1658819815.3,286047002.4,N
1658819835.2,286046999.9,N
1658819855.9,286047000.2,N
1658819875.7,286047002.6,N
1658819895.6,286047002.4,N
1658819915.4,286047002.8,N
1658819935.2,286047002.0,N
1658819955.1,286047002.6,N
1658819956.0,286047002.6,N
1658819975.8,286047002.0,N
1658819995.7,286047002.0,N
1658820015.5,286047001.9,N
1658820035.3,286047001.5,N
1658820055.2,286047001.7,N
1658820075.0,286047002.1,N
1658820075.9,286047002.1,N
1658820095.7,286047001.3,N
1658820115.6,286047002.1,N
1658820135.4,286047002.0,N
1658820155.3,286047001.4,N
1658820175.1,286047001.8,N
1658820176.0,286047001.8,N
1658820195.8,286047001.7,N
1658820215.7,286047001.4,N
1658820235.5,286047001.6,N
1658820255.3,286047001.7,N
1658820275.2,286047001.3,N
1658820295.0,286047001.3,N
1658820295.9,286047001.3,N
1658820315.8,286047004.0,Y
1658820335.6,286047002.3,P
1658820355.4,286046999.8,N
1658820375.3,286047000.3,N
1658820395.1,286047000.5,N
1658820415.9,286047000.5,N
1658820435.7,286046999.8,N
1658820455.5,286047000.0,N
1658820475.4,286047000.0,N
1658820495.2,286046999.9,N
1658820515.0,286047000.0,N
1658820515.9,286047000.0,N
1658820535.8,286046999.7,N
1658820555.6,286047000.3,N
1658820575.5,286046999.9,N
1658820595.3,286047001.0,N
1658820615.1,286047000.0,N
1658820635.9,286047000.9,N
1658820655.7,286047000.6,N
1658820675.5,286047000.5,N
1658820695.4,286047000.5,N
1658820715.2,286047000.3,N
1658820735.0,286047000.0,N
1658820736.0,286047000.0,N
1658820755.8,286047000.9,N
1658820775.6,286047000.6,N
1658820795.5,286047000.6,N
1658820815.3,286047000.2,N
1658820835.1,286046999.8,N
1658820855.9,286046999.8,N
1658820875.7,286047000.1,N
1658820895.5,286047000.3,N
1658820915.4,286047002.8,Y
1658820935.2,286046999.8,P
1658820955.1,286047000.4,N
1658820956.0,286047000.4,N
1658820975.8,286047000.2,N
1658820995.6,286047000.4,N
1658821015.5,286046999.8,N
1658821035.3,286047002.3,Y
1658821055.2,286046999.9,P
1658821075.9,286046999.9,N
1658821095.7,286047002.8,P
1658821115.6,286047002.4,N
1658821135.4,286047000.6,N
1658821155.2,286047000.2,N
1658821175.1,286047000.9,N
1658821176.0,286047000.9,N
1658821195.8,286047000.1,N
1658821215.7,286047000.4,N
1658821235.5,286047000.4,N
1658821255.3,286047000.4,N
1658821275.2,286047000.1,N
1658821295.0,286046999.8,N
1658821295.9,286046999.8,N
1658821315.7,286047000.9,N
1658821335.6,286047001.0,N
1658821355.4,286047001.0,N
1658821375.3,286047000.6,N
1658821395.1,286047000.9,N
1658821396.0,286047000.9,N
1658821415.8,286047000.9,N
1658821435.7,286047000.6,N
1658821455.5,286047000.3,N
1658821475.3,286047000.3,N
1658821495.2,286047000.6,N
1658821515.0,286047000.1,N
1658821515.9,286047000.1,N
1658821535.8,286046999.9,N
1658821555.6,286047002.7,Y
1658821575.4,286047000.6,P
1658821595.3,286047001.0,P
1658821615.1,286047000.0,N
1658821635.9,286047001.0,N
1658821655.7,286047000.2,N
1658821675.5,286047000.6,N
1658821695.4,286047000.3,N
1658821715.2,286047000.4,N
1658821735.0,286047000.4,N
1658821735.9,286047000.4,N
1658821755.8,286047000.7,N
1658821775.6,286047001.0,Y
1658821795.5,286047000.8,P
1658821815.3,286046998.3,P
1658821835.1,286046998.6,N
1658821855.9,286046998.6,N
1658821875.7,286047001.1,N
1658821895.5,286046998.6,N
1658821915.4,286047000.8,N
1658821935.2,286046998.1,N
1658821955.0,286047000.6,N
1658821956.0,286047000.6,N
1658821975.8,286046998.1,N
1658821995.6,286046998.2,N
1658822015.5,286047000.7,N
1658822035.3,286047001.1,N
1658822055.1,286046998.5,N
1658822075.9,286046999.5,N
1658822095.7,286046999.4,N
1658822115.5,286046999.2,N
1658822135.4,286046999.4,N
1658822155.2,286046999.5,N
1658822175.1,286046996.7,Y
1658822176.0,286046996.7,P
1658822195.8,286046999.1,N
1658822215.6,286046999.3,N
1658822235.5,286046997.3,N
1658822255.3,286046999.6,N
1658822275.1,286046998.9,N
1658822295.9,286046999.5,N
1658822315.7,286046999.6,N
1658822335.6,286046999.1,N
1658822355.4,286047000.9,N
1658822375.2,286046999.0,N
1658822395.1,286046998.6,N
1658822396.0,286046998.6,N
